EW6604 Weather Reports


Display with metric or nautical units.
time (UTC)temp
F
wind
direction
speed
MPH
gust
MPH
rain 1hr
in
rain 24hr
in
rain mn
in
humidity
%
barometer
mb
20260509141213 79 253 1.0 4.0 0.00 0.59 0.00 86 1013.8
20260509140726 79 162 1.0 4.0 0.00 0.59 0.00 86 1013.7
20260509140226 78 261 1.0 4.0 0.00 0.59 0.00 87 1013.7
20260509135729 78 214 2.0 7.0 0.00 0.59 0.00 87 1013.7
20260509135213 78 285 3.0 7.0 0.00 0.59 0.00 87 1013.7
20260509134718 78 257 1.0 4.0 0.00 0.59 0.00 87 1013.5
20260509134243 78 251 1.0 4.0 0.00 0.59 0.00 87 1013.3
20260509133728 78 187 1.0 4.0 0.00 0.59 0.00 88 1013.1
20260509133233 77 88 2.0 5.0 0.00 0.59 0.00 88 1013.1
20260509132717 77 107 2.0 6.0 0.00 0.59 0.00 88 1013.0
20260509132222 77 104 2.0 6.0 0.00 0.59 0.00 88 1013.1
20260509131724 77 162 1.0 4.0 0.00 0.59 0.00 89 1013.1
20260509131309 77 134 2.0 4.0 0.00 0.59 0.00 89 1013.1
20260509130726 76 133 1.0 4.0 0.00 0.59 0.00 90 1012.9
20260509130216 76 191 2.0 4.0 0.00 0.59 0.00 90 1012.9
20260509125720 76 122 2.0 4.0 0.00 0.59 0.00 91 1012.9
20260509125226 75 31 2.0 4.0 0.00 0.59 0.00 92 1012.9
20260509124727 74 109 1.0 2.0 0.00 0.59 0.00 92 1012.9
20260509124233 74 179 0.0 1.0 0.00 0.59 0.00 93 1012.9
20260509123717 73 208 0.0 1.0 0.00 0.59 0.00 93 1013.0
20260509123222 73 157 0.0 0.0 0.00 0.59 0.00 93 1013.0
20260509122746 73 156 0.0 0.0 0.00 0.59 0.00 93 1013.1
20260509122251 73 156 0.0 1.0 0.00 0.59 0.00 93 1013.2
20260509121734 73 156 0.0 1.0 0.00 0.59 0.00 94 1013.0
20260509121218 72 190 0.0 2.0 0.00 0.59 0.00 94 1012.9
20260509120713 72 105 0.0 2.0 0.00 0.59 0.00 94 1012.9
20260509120217 72 212 0.0 2.0 0.00 0.59 0.00 94 1012.8
20260509115723 72 125 0.0 2.0 0.00 0.59 0.00 94 1012.9
20260509114714 71 172 1.0 4.0 0.00 0.59 0.00 94 1012.6
20260509114218 71 218 0.0 3.0 0.00 0.59 0.00 94 1012.5
20260509113723 71 149 1.0 3.0 0.00 0.59 0.00 94 1012.5
20260509113229 71 100 1.0 3.0 0.00 0.59 0.00 94 1012.5
20260509112730 71 77 1.0 3.0 0.00 0.59 0.00 94 1012.6
20260509112235 71 130 2.0 5.0 0.00 0.59 0.00 94 1012.7
20260509111740 71 192 1.0 3.0 0.00 0.59 0.00 94 1012.7
20260509111223 71 128 1.0 2.0 0.00 0.59 0.00 94 1012.6
20260509110728 71 152 1.0 2.0 0.00 0.59 0.00 94 1012.7
20260509110232 70 127 0.0 2.0 0.00 0.59 0.00 94 1012.8
20260509105717 70 114 0.0 1.0 0.00 0.59 0.00 94 1012.9
20260509105225 70 98 0.0 1.0 0.00 0.59 0.00 94 1012.9
20260509104730 70 185 0.0 1.0 0.00 0.59 0.00 94 1013.0
20260509104215 70 185 0.0 5.0 0.00 0.59 0.00 94 1012.9
20260509103719 70 152 0.0 5.0 0.00 0.59 0.00 94 1012.8
20260509103225 70 155 0.0 1.0 0.00 0.59 0.00 94 1012.8
20260509102730 70 112 0.0 1.0 0.00 0.59 0.00 94 1012.8
20260509102214 70 144 0.0 1.0 0.00 0.59 0.00 94 1012.7
20260509101738 70 122 0.0 2.0 0.00 0.59 0.00 94 1012.8
20260509101222 70 143 0.0 2.0 0.00 0.59 0.00 94 1012.8
20260509100715 70 187 0.0 2.0 0.00 0.59 0.00 94 1012.8
20260509100219 70 189 1.0 2.0 0.00 0.59 0.00 94 1012.8
20260509095716 70 194 0.0 1.0 0.00 0.59 0.00 94 1012.8
20260509095221 70 194 0.0 1.0 0.00 0.59 0.00 94 1012.7
20260509094726 70 201 0.0 2.0 0.00 0.59 0.00 94 1012.8
20260509094231 70 196 0.0 2.0 0.00 0.59 0.00 94 1012.8
20260509093716 70 198 0.0 1.0 0.00 0.59 0.00 94 1012.9
20260509093221 70 198 0.0 1.0 0.00 0.59 0.00 94 1012.8
20260509092725 70 198 0.0 1.0 0.00 0.59 0.00 93 1012.8
20260509092230 70 198 0.0 2.0 0.00 0.59 0.00 93 1012.9
20260509091734 70 198 1.0 2.0 0.00 0.59 0.00 93 1013.0
20260509091218 70 202 1.0 1.0 0.00 0.59 0.00 93 1013.1
20260509090722 70 202 0.0 1.0 0.00 0.59 0.00 93 1013.0
20260509090227 70 202 0.0 1.0 0.00 0.59 0.00 92 1013.0
20260509085736 70 202 1.0 1.0 0.00 0.59 0.00 92 1013.0
20260509085239 70 206 0.0 1.0 0.00 0.59 0.00 92 1013.1
20260509084720 70 159 0.0 1.0 0.00 0.59 0.00 92 1013.1
20260509084225 70 151 0.0 2.0 0.00 0.59 0.00 92 1013.1
20260509083729 70 151 0.0 3.0 0.00 0.59 0.00 91 1013.0
20260509083232 70 203 1.0 3.0 0.00 0.59 0.00 91 1013.0
20260509082737 70 192 1.0 2.0 0.00 0.59 0.00 90 1012.9
20260509082220 71 158 1.0 7.0 0.00 0.59 0.00 89 1013.0
20260509081742 71 125 1.0 7.0 0.00 0.59 0.00 89 1013.0
20260509081225 71 50 4.0 7.0 0.00 0.59 0.00 89 1013.0
20260509080728 71 73 5.0 7.0 0.00 0.59 0.00 89 1013.0
20260509080232 72 77 5.0 7.0 0.00 0.59 0.00 90 1013.0
20260509075715 72 62 2.0 7.0 0.00 0.59 0.00 90 1013.1
20260509075220 71 61 5.0 7.0 0.00 0.59 0.00 90 1013.0
20260509074724 71 48 6.0 9.0 0.00 0.59 0.00 90 1013.1
20260509074249 71 34 7.0 9.0 0.00 0.59 0.00 90 1013.2
20260509073715 71 42 7.0 9.0 0.00 0.59 0.00 92 1013.2
20260509073218 71 47 6.0 8.0 0.00 0.59 0.00 93 1013.3
20260509072722 71 42 5.0 8.0 0.00 0.59 0.00 94 1013.3
20260509072216 71 40 6.0 9.0 0.00 0.59 0.00 95 1013.3
20260509071720 71 37 7.0 12.0 0.00 0.59 0.00 95 1013.5
20260509071224 71 11 7.0 12.0 0.00 0.59 0.00 95 1013.5
20260509070729 72 19 8.0 12.0 0.00 0.59 0.00 95 1013.4
20260509070233 72 37 8.0 10.0 0.00 0.59 0.00 95 1013.6
20260509065718 72 25 7.0 10.0 0.00 0.59 0.00 95 1013.7
20260509065223 72 27 7.0 10.0 0.00 0.59 0.00 95 1013.6
20260509064725 72 54 7.0 9.0 0.00 0.59 0.00 95 1013.8
20260509064233 72 28 6.0 11.0 0.00 0.59 0.00 95 1013.8
20260509063716 72 38 8.0 11.0 0.00 0.59 0.00 95 1013.9
20260509063219 72 47 7.0 10.0 0.00 0.59 0.00 95 1013.8
20260509062743 72 49 8.0 9.0 0.00 0.59 0.00 95 1013.8
20260509062224 72 41 6.0 10.0 0.00 0.59 0.00 95 1013.9
20260509061727 72 31 6.0 10.0 0.00 0.59 0.00 95 1014.0
20260509061232 72 23 8.0 10.0 0.00 0.59 0.00 95 1014.1
20260509060719 73 35 7.0 10.0 0.00 0.59 0.00 95 1014.1
20260509060223 73 22 6.0 13.0 0.00 0.59 0.00 95 1014.1
20260509055724 73 6 8.0 13.0 0.00 0.59 0.00 95 1014.2
20260509055228 73 8 9.0 13.0 0.00 0.59 0.00 95 1014.3
20260509054750 73 7 9.0 13.0 0.00 0.59 0.00 95 1014.3
20260509054253 73 354 10.0 13.0 0.00 0.59 0.00 95 1014.4
20260509053716 73 352 9.0 14.0 0.00 0.59 0.00 95 1014.4
20260509053239 74 355 9.0 14.0 0.00 0.59 0.00 95 1014.4
20260509052722 73 354 8.0 13.0 0.00 0.59 0.00 95 1014.5
20260509052225 73 345 9.0 14.0 0.00 0.59 0.00 95 1014.6
20260509051727 73 317 9.0 14.0 0.00 0.59 0.00 95 1014.6
20260509051214 73 347 9.0 12.0 0.00 0.59 0.00 95 1014.6
20260509050718 73 353 9.0 12.0 0.00 0.59 0.00 95 1014.7
20260509050242 74 328 8.0 12.0 0.00 0.59 0.00 95 1014.6
20260509045725 73 328 8.0 12.0 0.00 0.59 0.00 95 1014.8
20260509045229 74 320 8.0 12.0 0.00 0.59 0.00 95 1014.8
20260509044752 73 321 7.0 12.0 0.00 0.59 0.00 95 1014.7
20260509044217 74 310 9.0 11.0 0.00 0.59 0.00 95 1014.8
20260509043722 74 314 7.0 11.0 0.00 0.59 0.00 95 1014.8
20260509043227 74 318 6.0 8.0 0.00 0.59 0.00 95 1014.8
20260509042751 74 331 6.0 8.0 0.00 0.59 0.00 95 1014.8
20260509041743 74 337 6.0 8.0 0.00 0.59 0.00 95 1014.9
20260509041224 74 311 7.0 8.0 0.00 0.59 0.00 96 1015.0
20260509040721 74 315 6.0 7.0 0.00 0.59 0.00 96 1015.1
20260509040214 74 312 4.0 5.0 0.00 0.59 0.00 96 1015.1
20260509035718 73 310 3.0 4.0 0.00 0.59 0.59 96 1015.0
20260509024720 74 149 1.0 1.0 0.00 0.59 0.59 95 1015.0
20260509024225 74 149 1.0 1.0 0.00 0.59 0.59 95 1015.0
20260509023730 74 148 0.0 1.0 0.00 0.59 0.59 95 1014.9
20260509023253 74 158 0.0 1.0 0.00 0.59 0.59 95 1014.9
20260509022716 74 158 1.0 2.0 0.00 0.59 0.59 95 1014.9
20260509022221 74 160 1.0 2.0 0.00 0.59 0.59 95 1015.0
20260509021726 74 156 1.0 1.0 0.00 0.59 0.59 95 1014.9
20260509021230 74 153 0.0 2.0 0.00 0.59 0.59 95 1014.7
20260509020722 74 152 0.0 4.0 0.00 0.59 0.59 95 1014.6
20260509020227 74 134 2.0 4.0 0.00 0.59 0.59 95 1014.6
20260509015752 74 58 3.0 4.0 0.00 0.59 0.59 95 1014.6
20260509015220 73 44 3.0 4.0 0.00 0.59 0.59 95 1014.5
20260509014725 73 59 2.0 5.0 0.00 0.59 0.59 95 1014.5
20260509014230 73 38 3.0 5.0 0.00 0.59 0.59 95 1014.4
20260509013735 73 23 3.0 6.0 0.00 0.59 0.59 95 1014.4
20260509013218 74 11 4.0 6.0 0.00 0.59 0.59 95 1014.4
20260509012722 73 9 4.0 5.0 0.00 0.59 0.59 95 1014.3
20260509012227 73 20 4.0 7.0 0.00 0.59 0.59 95 1014.1
20260509011732 74 23 5.0 7.0 0.00 0.59 0.59 95 1014.0
20260509011216 74 40 5.0 9.0 0.00 0.59 0.59 95 1014.0
20260509010246 74 340 7.0 9.0 0.00 0.59 0.59 95 1014.1
20260509005729 74 2 5.0 7.0 0.00 0.59 0.59 95 1014.0
20260509005218 74 355 5.0 8.0 0.00 0.59 0.59 95 1013.8
20260509004723 74 338 5.0 11.0 0.00 0.59 0.59 95 1013.8
20260509004228 74 43 7.0 10.0 0.00 0.59 0.59 95 1013.6
20260509003730 74 63 8.0 10.0 0.00 0.59 0.59 95 1013.5
20260509003217 74 130 0.0 1.0 0.00 0.59 0.59 95 1013.8
20260509002721 74 139 0.0 8.0 0.00 0.59 0.59 95 1014.0
20260509002226 74 94 5.0 10.0 0.00 0.59 0.59 95 1013.8
20260509001731 74 60 8.0 10.0 0.00 0.59 0.59 95 1013.7
20260509001216 74 67 7.0 10.0 0.00 0.59 0.59 95 1013.6
20260509000750 74 80 7.0 11.0 0.00 0.59 0.59 95 1013.7
20260509000216 74 70 9.0 13.0 0.00 0.59 0.59 95 1013.6
20260508235720 74 78 9.0 12.0 0.00 0.59 0.59 95 1013.4
20260508235228 75 74 8.0 10.0 0.00 0.59 0.59 95 1013.4
20260508234713 74 72 8.0 10.0 0.01 0.59 0.59 94 1013.3
20260508234217 74 69 6.0 11.0 0.02 0.59 0.59 94 1013.5
20260508233722 74 70 8.0 11.0 0.02 0.59 0.59 94 1013.4
20260508233227 74 63 9.0 10.0 0.03 0.59 0.59 94 1013.1
20260508232731 74 75 8.0 11.0 0.04 0.59 0.59 94 1013.1
20260508232216 74 75 8.0 13.0 0.05 0.59 0.59 94 1013.0
20260508231721 74 61 11.0 15.0 0.06 0.59 0.59 94 1012.8
20260508231206 74 71 11.0 16.0 0.11 0.59 0.59 95 1012.6
20260508230711 74 66 13.0 16.0 0.19 0.59 0.59 94 1012.4
20260508230221 74 68 13.0 16.0 0.36 0.59 0.59 94 1012.4
20260508225724 74 80 13.0 15.0 0.52 0.59 0.59 94 1012.6
20260508225208 74 82 11.0 17.0 0.56 0.59 0.59 94 1013.0
20260508224713 74 59 12.0 17.0 0.57 0.58 0.58 95 1012.8
20260508224236 73 64 10.0 14.0 0.57 0.57 0.57 94 1012.7
20260508223721 74 32 9.0 12.0 0.57 0.57 0.57 94 1012.8
20260508223204 74 48 8.0 16.0 0.56 0.56 0.56 94 1012.9
20260508222709 74 41 10.0 16.0 0.55 0.55 0.55 94 1012.5
20260508222213 74 35 12.0 16.0 0.54 0.54 0.54 93 1012.1
20260508221718 74 25 11.0 14.0 0.52 0.52 0.52 93 1012.4
20260508221223 74 13 10.0 12.0 0.48 0.48 0.48 93 1012.7
20260508220722 75 339 5.0 11.0 0.38 0.38 0.38 93 1012.9
20260508220210 75 344 6.0 20.0 0.19 0.19 0.19 92 1013.2
20260508215711 76 12 14.0 24.0 0.06 0.06 0.06 91 1012.8
20260508215216 77 43 18.0 24.0 0.03 0.03 0.03 90 1011.8
20260508214738 78 41 17.0 21.0 0.01 0.01 0.01 88 1011.3
20260508214220 78 38 17.0 20.0 0.00 0.00 0.00 86 1011.7
20260508213723 79 44 13.0 18.0 0.00 0.00 0.00 86 1011.8
20260508213224 79 54 13.0 18.0 0.00 0.00 0.00 85 1011.4
20260508212708 79 40 13.0 16.0 0.00 0.00 0.00 85 1011.4
20260508212209 80 40 13.0 16.0 0.00 0.00 0.00 85 1011.8
20260508211714 80 37 12.0 17.0 0.00 0.00 0.00 84 1012.0
20260508211218 80 56 11.0 18.0 0.00 0.00 0.00 85 1011.8
20260508210721 81 78 13.0 18.0 0.00 0.00 0.00 84 1011.7
20260508210208 81 75 14.0 22.0 0.00 0.00 0.00 86 1011.3
20260508205709 81 73 18.0 22.0 0.00 0.00 0.00 84 1011.2
20260508205231 81 68 18.0 21.0 0.00 0.00 0.00 84 1011.2
20260508204734 81 66 17.0 21.0 0.00 0.00 0.00 84 1011.1
20260508204216 82 66 17.0 21.0 0.00 0.00 0.00 83 1011.2
20260508203740 82 76 17.0 19.0 0.00 0.00 0.00 81 1011.3
20260508203221 82 69 16.0 18.0 0.00 0.00 0.00 81 1011.4
20260508202724 83 53 16.0 18.0 0.00 0.00 0.00 81 1011.5
20260508202206 83 77 13.0 18.0 0.00 0.00 0.00 81 1011.4
20260508201709 83 68 10.0 15.0 0.00 0.00 0.00 81 1011.4
20260508201212 83 59 11.0 15.0 0.00 0.00 0.00 80 1011.4
20260508200711 83 64 12.0 16.0 0.00 0.00 0.00 81 1011.4
20260508200216 83 59 12.0 16.0 0.00 0.00 0.00 81 1011.5
20260508195718 83 56 10.0 13.0 0.00 0.00 0.00 80 1011.7
20260508195241 84 70 12.0 13.0 0.00 0.00 0.00 79 1011.8
20260508194725 84 61 10.0 13.0 0.00 0.00 0.00 80 1011.9
20260508194212 83 67 11.0 13.0 0.00 0.00 0.00 80 1012.0
20260508193715 84 57 9.0 11.0 0.00 0.00 0.00 79 1012.1
20260508193220 84 66 8.0 10.0 0.00 0.00 0.00 79 1012.1
20260508192744 84 91 7.0 11.0 0.00 0.00 0.00 79 1012.2
20260508192228 83 82 10.0 11.0 0.00 0.00 0.00 79 1012.4
20260508191712 83 69 8.0 10.0 0.00 0.00 0.00 79 1012.3
20260508191237 83 75 9.0 11.0 0.00 0.00 0.00 81 1012.4
20260508190721 83 63 10.0 11.0 0.00 0.00 0.00 80 1012.5
20260508190207 83 60 8.0 11.0 0.00 0.00 0.00 81 1012.6
20260508185711 83 44 8.0 12.0 0.00 0.00 0.00 81 1012.7
20260508185216 83 70 9.0 13.0 0.00 0.00 0.00 81 1012.8
20260508184721 83 61 8.0 13.0 0.00 0.00 0.00 81 1012.8
20260508184223 83 68 10.0 13.0 0.00 0.00 0.00 82 1013.0
20260508183711 83 70 11.0 13.0 0.00 0.00 0.00 80 1013.1
20260508183217 83 54 9.0 12.0 0.00 0.00 0.00 80 1013.2
20260508182720 84 63 9.0 12.0 0.00 0.00 0.00 80 1013.2
20260508182204 84 65 6.0 8.0 0.00 0.00 0.00 77 1013.3
20260508181709 84 65 3.0 6.0 0.00 0.00 0.00 78 1013.5
20260508181234 83 65 5.0 6.0 0.00 0.00 0.00 77 1013.5
20260508180706 83 61 5.0 6.0 0.00 0.00 0.00 79 1013.6
20260508180211 83 43 4.0 8.0 0.00 0.00 0.00 78 1013.5
20260508175724 83 35 5.0 8.0 0.00 0.00 0.00 78 1013.7
20260508175204 83 38 5.0 6.0 0.00 0.00 0.00 78 1013.8
20260508174709 83 61 4.0 5.0 0.00 0.00 0.00 77 1013.8
20260508174214 83 61 4.0 5.0 0.00 0.00 0.00 77 1013.8
20260508173718 83 51 4.0 5.0 0.00 0.00 0.00 78 1013.9
20260508173224 83 37 3.0 4.0 0.00 0.00 0.00 77 1013.9
20260508172712 83 30 2.0 3.0 0.00 0.00 0.00 77 1014.0
20260508172217 83 10 2.0 3.0 0.00 0.00 0.00 78 1014.0
20260508171723 82 68 2.0 4.0 0.00 0.00 0.00 78 1014.0
20260508171207 82 69 2.0 4.0 0.00 0.00 0.00 79 1014.2
20260508170731 82 58 3.0 4.0 0.00 0.00 0.00 79 1014.3
20260508170217 82 53 3.0 5.0 0.00 0.00 0.00 79 1014.4
20260508165721 82 54 4.0 5.0 0.00 0.00 0.00 79 1014.4
20260508165225 82 57 3.0 5.0 0.00 0.00 0.00 79 1014.5
20260508164710 82 57 4.0 5.0 0.00 0.00 0.00 80 1014.6
20260508164234 82 51 3.0 5.0 0.00 0.00 0.00 80 1014.6
20260508163717 82 49 4.0 4.0 0.00 0.00 0.00 81 1014.6
20260508163220 81 59 3.0 4.0 0.00 0.00 0.00 81 1014.7
20260508162709 81 28 3.0 4.0 0.00 0.00 0.00 82 1014.7
20260508162214 81 56 2.0 3.0 0.00 0.00 0.00 81 1014.7
20260508161718 81 83 2.0 3.0 0.00 0.00 0.00 81 1014.9
20260508161243 81 81 2.0 3.0 0.00 0.00 0.00 81 1015.0
20260508160709 81 72 2.0 3.0 0.00 0.00 0.00 82 1015.1
20260508160212 81 80 2.0 2.0 0.00 0.00 0.00 82 1015.1
20260508155737 81 68 1.0 3.0 0.00 0.00 0.00 82 1015.2
20260508155241 81 64 2.0 4.0 0.00 0.00 0.00 82 1015.3
20260508154705 80 60 4.0 5.0 0.00 0.00 0.00 82 1015.2
20260508154209 81 54 4.0 5.0 0.00 0.00 0.00 82 1015.2
20260508153714 81 51 4.0 4.0 0.00 0.00 0.00 82 1015.4
20260508153224 81 59 3.0 4.0 0.00 0.00 0.00 82 1015.4
20260508152709 81 36 2.0 4.0 0.00 0.00 0.00 82 1015.5
20260508152214 81 36 3.0 4.0 0.00 0.00 0.00 83 1015.4
20260508151719 81 28 2.0 2.0 0.00 0.00 0.00 82 1015.5
20260508151244 81 34 1.0 2.0 0.00 0.00 0.00 82 1015.6
20260508150708 80 34 0.0 2.0 0.00 0.00 0.00 84 1015.6
20260508150214 80 46 0.0 2.0 0.00 0.00 0.00 84 1015.7
20260508145719 80 46 2.0 2.0 0.00 0.00 0.00 84 1015.7
20260508145224 80 46 1.0 3.0 0.00 0.00 0.00 85 1015.6
20260508144709 80 49 2.0 3.0 0.00 0.00 0.00 85 1015.6
20260508144213 80 51 3.0 3.0 0.00 0.00 0.00 84 1015.4
20260508143722 80 51 3.0 4.0 0.00 0.00 0.00 85 1015.4
20260508143224 80 58 3.0 4.0 0.00 0.00 0.00 85 1015.4
20260508142709 80 40 2.0 3.0 0.00 0.00 0.00 85 1015.4
20260508142214 80 15 1.0 2.0 0.00 0.00 0.00 85 1015.4
20260508141739 79 29 1.0 2.0 0.00 0.00 0.00 85 1015.4